GW2490 Weather Reports


Display with metric or nautical units.
time (UTC)temp
F
wind
direction
speed
MPH
gust
MPH
rain 1hr
in
rain 24hr
in
rain mn
in
humidity
%
barometer
mb
20260905152600 0 0.0 0.0 0.00 0.00 0.00
20260905152457 54 60 0.0 0.0 0.00 0.00 0.00 93 1017.1
20260905152056 0 0.0 0.0 0.00 0.00 0.00
20260905151957 53 360 0.0 0.0 0.00 0.00 0.00 93 1017.0
20260905151457 53 95 0.0 1.0 0.00 0.00 0.00 93 1017.1
20260905151056 0 0.0 0.0 0.00 0.00 0.00
20260905150957 53 342 0.0 2.0 0.00 0.00 0.00 93 1017.1
20260905150557 0 0.0 0.0 0.00 0.00 0.00
20260905150456 53 281 1.0 2.0 0.00 0.00 0.00 93 1017.1
20260905150056 0 0.0 0.0 0.00 0.00 0.00
20260905145957 53 318 0.0 1.0 0.00 0.00 0.00 93 1017.2
20260905145457 53 291 0.0 1.0 0.00 0.00 0.00 93 1017.2
20260905145057 0 0.0 0.0 0.00 0.00 0.00
20260905144957 53 106 0.0 1.0 0.00 0.00 0.00 93 1017.3
20260905144557 0 0.0 0.0 0.00 0.00 0.00
20260905144458 54 360 0.0 0.0 0.00 0.00 0.00 93 1017.3
20260905143957 54 207 0.0 0.0 0.00 0.00 0.00 93 1017.3
20260905143457 54 291 0.0 1.0 0.00 0.00 0.00 93 1017.3
20260905143057 0 0.0 0.0 0.00 0.00 0.00
20260905142957 54 350 0.0 2.0 0.00 0.00 0.00 93 1017.2
20260905142557 0 0.0 0.0 0.00 0.00 0.00
20260905142457 54 308 1.0 2.0 0.00 0.00 0.00 92 1017.1
20260905142055 0 0.0 0.0 0.00 0.00 0.00
20260905141957 54 282 1.0 2.0 0.00 0.00 0.00 92 1017.1
20260905141554 0 0.0 0.0 0.00 0.00 0.00
20260905141457 54 217 0.0 0.0 0.00 0.00 0.00 92 1017.1
20260905141054 0 0.0 0.0 0.00 0.00 0.00
20260905140956 54 264 0.0 0.0 0.00 0.00 0.00 91 1017.0
20260905140555 0 0.0 0.0 0.00 0.00 0.00
20260905140457 54 271 0.0 0.0 0.00 0.00 0.00 91 1017.0
20260905140054 0 0.0 0.0 0.00 0.00 0.00
20260905135957 53 309 0.0 2.0 0.00 0.00 0.00 90 1017.0
20260905135555 0 0.0 0.0 0.00 0.00 0.00
20260905135500 54 38 0.0 1.0 0.00 0.00 0.00 90 1017.1
20260905135055 0 0.0 0.0 0.00 0.00 0.00
20260905134957 54 348 1.0 3.0 0.00 0.00 0.00 90 1017.1
20260905134552 0 0.0 0.0 0.00 0.00 0.00
20260905134457 54 79 1.0 3.0 0.00 0.00 0.00 90 1016.9
20260905134053 0 0.0 0.0 0.00 0.00 0.00
20260905133958 54 170 0.0 2.0 0.00 0.00 0.00 88 1017.0
20260905133557 0 0.0 0.0 0.00 0.00 0.00
20260905133457 54 90 1.0 2.0 0.00 0.00 0.00 88 1016.8
20260905132957 54 96 3.0 4.0 0.00 0.00 0.00 90 1016.7
20260905132551 0 0.0 0.0 0.00 0.00 0.00
20260905132457 54 71 2.0 2.0 0.00 0.00 0.00 91 1016.7
20260905131957 54 58 2.0 2.0 0.00 0.00 0.00 92 1016.7
20260905131552 0 0.0 0.0 0.00 0.00 0.00
20260905131459 54 360 0.0 0.0 0.00 0.00 0.00 93 1016.7
20260905130957 55 334 1.0 2.0 0.00 0.00 0.00 93 1016.6
20260905130457 55 306 0.0 2.0 0.00 0.00 0.00 93 1016.7
20260905130052 0 0.0 0.0 0.00 0.00 0.00
20260905125957 55 324 1.0 2.0 0.00 0.00 0.00 93 1016.7
20260905125548 0 0.0 0.0 0.00 0.00 0.00
20260905125458 55 317 2.0 3.0 0.00 0.00 0.00 92 1016.7
20260905125049 0 0.0 0.0 0.00 0.00 0.00
20260905124957 55 306 2.0 4.0 0.00 0.00 0.00 92 1016.6
20260905124548 0 0.0 0.0 0.00 0.00 0.00
20260905124457 55 304 3.0 4.0 0.00 0.00 0.00 92 1016.6
20260905124044 0 0.0 0.0 0.00 0.00 0.00
20260905123957 55 319 3.0 6.0 0.00 0.00 0.00 91 1016.6
20260905123544 0 0.0 0.0 0.00 0.00 0.00
20260905123457 55 316 2.0 4.0 0.00 0.00 0.00 90 1016.6
20260905123041 0 0.0 0.0 0.00 0.00 0.00
20260905122957 55 307 1.0 2.0 0.00 0.00 0.00 89 1016.6
20260905122457 55 315 1.0 3.0 0.00 0.00 0.00 88 1016.6
20260905121957 54 310 0.0 1.0 0.00 0.00 0.00 86 1016.6
20260905121538 0 0.0 0.0 0.00 0.00 0.00
20260905121457 54 21 0.0 1.0 0.00 0.00 0.00 85 1016.6
20260905121039 0 0.0 0.0 0.00 0.00 0.00
20260905120957 55 356 0.0 1.0 0.00 0.00 0.00 85 1016.6
20260905120538 0 0.0 0.0 0.00 0.00 0.00
20260905120457 55 327 1.0 2.0 0.00 0.00 0.00 85 1016.6
20260905120039 0 0.0 0.0 0.00 0.00 0.00
20260905115957 55 360 0.0 0.0 0.00 0.00 0.00 85 1016.6
20260905115540 0 0.0 0.0 0.00 0.00 0.00
20260905115457 55 204 0.0 1.0 0.00 0.00 0.00 85 1016.6
20260905114957 55 137 0.0 1.0 0.00 0.00 0.00 85 1016.6
20260905114537 0 0.0 0.0 0.00 0.00 0.00
20260905114459 55 360 0.0 0.0 0.00 0.00 0.00 85 1016.6
20260905114037 0 0.0 0.0 0.00 0.00 0.00
20260905113957 55 320 0.0 1.0 0.00 0.00 0.00 86 1016.6
20260905113537 0 0.0 0.0 0.00 0.00 0.00
20260905113457 55 346 1.0 2.0 0.00 0.00 0.00 85 1016.6
20260905112958 55 20 0.0 1.0 0.00 0.00 0.00 86 1016.6
20260905112539 0 0.0 0.0 0.00 0.00 0.00
20260905112457 55 327 1.0 3.0 0.00 0.00 0.00 85 1016.5
20260905112034 0 0.0 0.0 0.00 0.00 0.00
20260905111957 55 340 1.0 2.0 0.00 0.00 0.00 83 1016.5
20260905111534 0 0.0 0.0 0.00 0.00 0.00
20260905111500 55 314 0.0 1.0 0.00 0.00 0.00 82 1016.4
20260905110957 55 39 0.0 2.0 0.00 0.00 0.00 82 1016.4
20260905110531 0 0.0 0.0 0.00 0.00 0.00
20260905110457 55 75 0.0 2.0 0.00 0.00 0.00 83 1016.4
20260905105957 55 27 1.0 2.0 0.00 0.00 0.00 83 1016.4
20260905105528 0 0.0 0.0 0.00 0.00 0.00
20260905105457 55 46 0.0 2.0 0.00 0.00 0.00 83 1016.2
20260905105029 0 0.0 0.0 0.00 0.00 0.00
20260905104957 54 41 2.0 2.0 0.00 0.00 0.00 84 1016.2
20260905104457 54 46 2.0 3.0 0.00 0.00 0.00 84 1016.2
20260905104029 0 0.0 0.0 0.00 0.00 0.00
20260905103957 55 14 1.0 2.0 0.00 0.00 0.00 84 1016.2
20260905103530 0 0.0 0.0 0.00 0.00 0.00
20260905103458 55 12 2.0 4.0 0.00 0.00 0.00 84 1016.4
20260905103028 0 0.0 0.0 0.00 0.00 0.00
20260905102957 55 23 2.0 2.0 0.00 0.00 0.00 84 1016.4
20260905102529 0 0.0 0.0 0.00 0.00 0.00
20260905102458 54 17 0.0 2.0 0.00 0.00 0.00 85 1016.2
20260905102026 0 0.0 0.0 0.00 0.00 0.00
20260905101957 54 51 2.0 3.0 0.00 0.00 0.00 86 1016.4
20260905101457 55 2 1.0 2.0 0.00 0.00 0.00 87 1016.4
20260905101023 0 0.0 0.0 0.00 0.00 0.00
20260905100958 54 319 2.0 5.0 0.00 0.00 0.00 86 1016.4
20260905100523 0 0.0 0.0 0.00 0.00 0.00
20260905100457 54 34 1.0 2.0 0.00 0.00 0.00 86 1016.4
20260905100023 0 0.0 0.0 0.00 0.00 0.00
20260905095957 54 43 1.0 2.0 0.00 0.00 0.00 87 1016.4
20260905095520 0 0.0 0.0 0.00 0.00 0.00
20260905095457 54 26 0.0 0.0 0.00 0.00 0.00 87 1016.4
20260905095020 0 0.0 0.0 0.00 0.00 0.00
20260905094957 54 35 1.0 2.0 0.00 0.00 0.00 88 1016.4
20260905094520 0 0.0 0.0 0.00 0.00 0.00
20260905094457 55 23 1.0 3.0 0.00 0.00 0.00 90 1016.2
20260905094020 0 0.0 0.0 0.00 0.00 0.00
20260905093957 55 328 1.0 2.0 0.00 0.00 0.00 89 1016.2
20260905093521 0 0.0 0.0 0.00 0.00 0.00
20260905093457 55 329 2.0 6.0 0.00 0.00 0.00 89 1016.2
20260905093021 0 0.0 0.0 0.00 0.00 0.00
20260905092957 55 340 1.0 3.0 0.00 0.00 0.00 89 1016.2
20260905092457 55 326 0.0 2.0 0.00 0.00 0.00 90 1016.2
20260905092018 0 0.0 0.0 0.00 0.00 0.00
20260905091957 55 319 2.0 4.0 0.00 0.00 0.00 90 1016.2
20260905091518 0 0.0 0.0 0.00 0.00 0.00
20260905091457 55 332 4.0 6.0 0.00 0.00 0.00 90 1016.2
20260905091016 0 0.0 0.0 0.00 0.00 0.00
20260905090957 55 343 3.0 5.0 0.00 0.00 0.00 89 1016.4
20260905090513 0 0.0 0.0 0.00 0.00 0.00
20260905090459 55 328 3.0 6.0 0.00 0.00 0.00 88 1016.4
20260905090013 0 0.0 0.0 0.00 0.00 0.00
20260905085957 54 326 0.0 2.0 0.00 0.00 0.00 84 1016.5
20260905085513 0 0.0 0.0 0.00 0.00 0.00
20260905085500 55 38 0.0 2.0 0.00 0.00 0.00 84 1016.5
20260905085009 0 0.0 0.0 0.00 0.00 0.00
20260905084957 55 29 1.0 3.0 0.00 0.00 0.00 83 1016.4
20260905084509 0 0.0 0.0 0.00 0.00 0.00
20260905084457 55 360 0.0 0.0 0.00 0.00 0.00 83 1016.4
20260905084009 0 0.0 0.0 0.00 0.00 0.00
20260905083957 55 53 0.0 1.0 0.00 0.00 0.00 84 1016.4
20260905083510 0 0.0 0.0 0.00 0.00 0.00
20260905083457 55 315 0.0 2.0 0.00 0.00 0.00 84 1016.4
20260905083009 0 0.0 0.0 0.00 0.00 0.00
20260905082957 55 360 0.0 0.0 0.00 0.00 0.00 84 1016.4
20260905082510 0 0.0 0.0 0.00 0.00 0.00
20260905082457 55 357 0.0 2.0 0.00 0.00 0.00 84 1016.4
20260905082010 0 0.0 0.0 0.00 0.00 0.00
20260905081957 55 360 0.0 0.0 0.00 0.00 0.00 83 1016.2
20260905081509 0 0.0 0.0 0.00 0.00 0.00
20260905081457 55 324 0.0 2.0 0.00 0.00 0.00 83 1016.1
20260905081010 0 0.0 0.0 0.00 0.00 0.00
20260905080957 55 38 1.0 3.0 0.00 0.00 0.00 83 1016.1
20260905080512 0 0.0 0.0 0.00 0.00 0.00
20260905080457 56 325 0.0 2.0 0.00 0.00 0.00 82 1016.1
20260905075957 56 348 1.0 2.0 0.00 0.00 0.00 83 1016.0
20260905075509 0 0.0 0.0 0.00 0.00 0.00
20260905075457 56 30 1.0 3.0 0.00 0.00 0.00 84 1016.0
20260905075007 0 0.0 0.0 0.00 0.00 0.00
20260905074957 56 331 2.0 3.0 0.00 0.00 0.00 84 1016.0
20260905074508 0 0.0 0.0 0.00 0.00 0.00
20260905074459 56 319 2.0 5.0 0.00 0.00 0.00 83 1016.0
20260905074008 0 0.0 0.0 0.00 0.00 0.00
20260905073957 56 324 2.0 3.0 0.00 0.00 0.00 82 1016.0
20260905073507 0 0.0 0.0 0.00 0.00 0.00
20260905073457 56 321 2.0 3.0 0.00 0.00 0.00 82 1016.0
20260905073005 0 0.0 0.0 0.00 0.00 0.00
20260905072957 56 328 2.0 4.0 0.00 0.00 0.00 83 1016.0
20260905072505 0 0.0 0.0 0.00 0.00 0.00
20260905072457 56 322 2.0 3.0 0.00 0.00 0.00 84 1015.9
20260905072005 0 0.0 0.0 0.00 0.00 0.00
20260905071957 56 321 2.0 5.0 0.00 0.00 0.00 82 1016.0
20260905071505 0 0.0 0.0 0.00 0.00 0.00
20260905071457 56 319 1.0 2.0 0.00 0.00 0.00 79 1016.0
20260905071006 0 0.0 0.0 0.00 0.00 0.00
20260905070957 56 312 2.0 4.0 0.00 0.00 0.00 77 1015.9
20260905070505 0 0.0 0.0 0.00 0.00 0.00
20260905070457 56 330 2.0 2.0 0.00 0.00 0.00 75 1015.9
20260905070006 0 0.0 0.0 0.00 0.00 0.00
20260905065957 57 333 2.0 3.0 0.00 0.00 0.00 74 1015.9
20260905065502 0 0.0 0.0 0.00 0.00 0.00
20260905065457 57 332 1.0 4.0 0.00 0.00 0.00 74 1015.8
20260905065003 0 0.0 0.0 0.00 0.00 0.00
20260905064957 57 341 1.0 2.0 0.00 0.00 0.00 74 1015.8
20260905064457 57 340 2.0 4.0 0.00 0.00 0.00 73 1015.8
20260905064002 0 0.0 0.0 0.00 0.00 0.00
20260905063957 57 318 2.0 4.0 0.00 0.00 0.00 73 1015.7
20260905063503 0 0.0 0.0 0.00 0.00 0.00
20260905063457 56 314 2.0 3.0 0.00 0.00 0.00 70 1015.8
20260905063003 0 0.0 0.0 0.00 0.00 0.00
20260905062957 56 339 1.0 3.0 0.00 0.00 0.00 70 1015.8
20260905062503 0 0.0 0.0 0.00 0.00 0.00
20260905062457 56 30 0.0 1.0 0.00 0.00 0.00 71 1015.8
20260905062003 0 0.0 0.0 0.00 0.00 0.00
20260905061957 56 18 0.0 2.0 0.00 0.00 0.00 71 1015.8
20260905061503 0 0.0 0.0 0.00 0.00 0.00
20260905061457 56 339 1.0 2.0 0.00 0.00 0.00 70 1015.7
20260905061001 0 0.0 0.0 0.00 0.00 0.00
20260905060958 56 346 1.0 2.0 0.00 0.00 0.00 70 1015.7
20260905060500 0 0.0 0.0 0.00 0.00 0.00
20260905060458 57 24 1.0 2.0 0.00 0.00 0.00 70 1015.7
20260905055959 0 0.0 0.0 0.00 0.00 0.00
20260905055957 57 56 0.0 2.0 0.00 0.00 0.00 69 1015.7
20260905055500 0 0.0 0.0 0.00 0.00 0.00
20260905055457 57 11 0.0 1.0 0.00 0.00 0.00 68 1015.8
20260905055008 57 300 2.0 2.0 0.00 0.00 0.00 67 1015.8
20260905054958 0 0.0 0.0 0.00 0.00 0.00
20260905054458 0 0.0 0.0 0.00 0.00 0.00
20260905053958 0 0.0 0.0 0.00 0.00 0.00
20260905053458 0 0.0 0.0 0.00 0.00 0.00
20260905052957 56 38 0.0 2.0 0.00 0.00 0.00 69 1015.8
20260905052458 0 0.0 0.0 0.00 0.00 0.00
20260905051957 56 57 1.0 3.0 0.00 0.00 0.00 68 1015.8
20260905051457 56 30 1.0 2.0 0.00 0.00 0.00 67 1015.8
20260905051002 56 28 1.0 2.0 0.00 0.00 0.00 67 1015.8
20260905050956 0 0.0 0.0 0.00 0.00 0.00
20260905050457 0 0.0 0.0 0.00 0.00 0.00
20260905045957 56 8 0.0 1.0 0.00 0.00 0.00 67 1015.9
20260905045457 56 25 2.0 2.0 0.00 0.00 0.00 65 1015.8
20260905044957 56 28 0.0 2.0 0.00 0.00 0.00 65 1015.9
20260905044457 57 329 1.0 2.0 0.00 0.00 0.00 66 1015.9
20260905043957 0 0.0 0.0 0.00 0.00 0.00
20260905043457 57 30 1.0 3.0 0.00 0.00 0.00 65 1015.9
20260905042957 57 51 2.0 3.0 0.00 0.00 0.00 66 1015.9
20260905042457 57 29 1.0 2.0 0.00 0.00 0.00 64 1015.8
20260905041957 57 33 1.0 2.0 0.00 0.00 0.00 65 1015.9
20260905041457 57 21 1.0 2.0 0.00 0.00 0.00 64 1015.8
20260905040957 0 0.0 0.0 0.00 0.00 0.00
20260905040457 56 63 1.0 2.0 0.00 0.00 0.00 65 1015.9
20260905040454 0 0.0 0.0 0.00 0.00 0.00
20260905035958 56 40 1.0 3.0 0.00 0.00 0.00 66 1015.8
20260905035953 0 0.0 0.0 0.00 0.00 0.00
20260905035458 56 50 1.0 2.0 0.00 0.00 0.00 67 1015.8
20260905035454 0 0.0 0.0 0.00 0.00 0.00
20260905034957 56 35 1.0 2.0 0.00 0.00 0.00 67 1015.8
20260905034954 0 0.0 0.0 0.00 0.00 0.00
20260905034457 57 29 1.0 2.0 0.00 0.00 0.00 67 1015.7
20260905034453 0 0.0 0.0 0.00 0.00 0.00
20260905033956 57 32 1.0 2.0 0.00 0.00 0.00 67 1015.7
20260905033457 57 32 1.0 3.0 0.00 0.00 0.00 67 1015.7
20260905032957 57 11 0.0 2.0 0.00 0.00 0.00 67 1015.6
20260905032953 0 0.0 0.0 0.00 0.00 0.00
20260905032457 57 333 0.0 2.0 0.00 0.00 0.00 67 1015.6
20260905032454 0 0.0 0.0 0.00 0.00 0.00
20260905031957 57 6 0.0 1.0 0.00 0.00 0.00 67 1015.5
20260905031458 57 43 0.0 2.0 0.00 0.00 0.00 66 1015.5
20260905031452 0 0.0 0.0 0.00 0.00 0.00
20260905030957 58 24 0.0 1.0 0.00 0.00 0.00 66 1015.4
20260905030948 0 0.0 0.0 0.00 0.00 0.00
20260905030457 58 7 1.0 2.0 0.00 0.00 0.00 65 1015.4
20260905030450 0 0.0 0.0 0.00 0.00 0.00
20260905025957 58 322 1.0 3.0 0.00 0.00 0.00 64 1015.3
20260905025948 0 0.0 0.0 0.00 0.00 0.00
20260905025457 58 316 1.0 3.0 0.00 0.00 0.00 65 1015.3
20260905024957 58 317 1.0 3.0 0.00 0.00 0.00 64 1015.3
20260905024950 0 0.0 0.0 0.00 0.00 0.00
20260905024458 58 312 2.0 3.0 0.00 0.00 0.00 63 1015.2
20260905024446 0 0.0 0.0 0.00 0.00 0.00
20260905023957 58 319 3.0 5.0 0.00 0.00 0.00 64 1015.2
20260905023946 0 0.0 0.0 0.00 0.00 0.00
20260905023457 58 316 2.0 3.0 0.00 0.00 0.00 65 1015.2
20260905023445 0 0.0 0.0 0.00 0.00 0.00
20260905022957 58 311 2.0 4.0 0.00 0.00 0.00 65 1015.2
20260905022946 0 0.0 0.0 0.00 0.00 0.00
20260905022458 58 324 2.0 4.0 0.00 0.00 0.00 66 1015.2
20260905022443 0 0.0 0.0 0.00 0.00 0.00
20260905021957 58 328 2.0 4.0 0.00 0.00 0.00 67 1015.2
20260905021943 0 0.0 0.0 0.00 0.00 0.00
20260905021457 58 353 2.0 4.0 0.00 0.00 0.00 69 1015.3
20260905020957 59 345 0.0 2.0 0.00 0.00 0.00 70 1015.2
20260905020938 0 0.0 0.0 0.00 0.00 0.00
20260905020457 59 351 1.0 2.0 0.00 0.00 0.00 70 1015.2
20260905020437 0 0.0 0.0 0.00 0.00 0.00
20260905015959 59 310 1.0 2.0 0.00 0.00 0.00 71 1015.0
20260905015938 0 0.0 0.0 0.00 0.00 0.00
20260905015457 59 340 2.0 3.0 0.00 0.00 0.00 73 1015.0
20260905015437 0 0.0 0.0 0.00 0.00 0.00
20260905014957 58 314 2.0 3.0 0.00 0.00 0.00 75 1014.9
20260905014938 0 0.0 0.0 0.00 0.00 0.00
20260905014457 58 318 3.0 6.0 0.00 0.00 0.00 76 1014.9
20260905014437 0 0.0 0.0 0.00 0.00 0.00
20260905013957 58 312 3.0 5.0 0.00 0.00 0.00 77 1014.8
20260905013457 58 316 4.0 5.0 0.00 0.00 0.00 76 1014.8
20260905013437 0 0.0 0.0 0.00 0.00 0.00
20260905012957 58 309 3.0 3.0 0.00 0.00 0.00 78 1014.8
20260905012457 58 307 3.0 4.0 0.00 0.00 0.00 77 1014.9
20260905012438 0 0.0 0.0 0.00 0.00 0.00
20260905011957 59 311 3.0 6.0 0.00 0.00 0.00 76 1014.8
20260905011936 0 0.0 0.0 0.00 0.00 0.00
20260905011458 59 308 3.0 5.0 0.00 0.00 0.00 76 1014.7
20260905011432 0 0.0 0.0 0.00 0.00 0.00
20260905010957 58 295 3.0 5.0 0.00 0.00 0.00 77 1014.8
20260905010932 0 0.0 0.0 0.00 0.00 0.00
20260905010458 58 308 2.0 4.0 0.00 0.00 0.00 78 1014.8
20260905010432 0 0.0 0.0 0.00 0.00 0.00
20260905005957 58 315 3.0 5.0 0.00 0.00 0.00 78 1014.8
20260905005933 0 0.0 0.0 0.00 0.00 0.00
20260905005457 58 307 3.0 5.0 0.00 0.00 0.00 78 1014.8
20260905005433 0 0.0 0.0 0.00 0.00 0.00
20260905004957 59 303 1.0 5.0 0.00 0.00 0.00 77 1014.7
20260905004457 59 297 2.0 3.0 0.00 0.00 0.00 77 1014.7
20260905004432 0 0.0 0.0 0.00 0.00 0.00
20260905003957 59 311 2.0 3.0 0.00 0.00 0.00 76 1014.6
20260905003933 0 0.0 0.0 0.00 0.00 0.00
20260905003457 59 313 2.0 4.0 0.00 0.00 0.00 75 1014.6
20260905003433 0 0.0 0.0 0.00 0.00 0.00
20260905002958 59 289 2.0 4.0 0.00 0.00 0.00 75 1014.5
20260905002932 0 0.0 0.0 0.00 0.00 0.00
20260905002458 59 303 2.0 5.0 0.00 0.00 0.00 75 1014.5
20260905001957 59 296 4.0 8.0 0.00 0.00 0.00 75 1014.4
20260905001457 59 300 2.0 3.0 0.00 0.00 0.00 76 1014.5
20260905001427 0 0.0 0.0 0.00 0.00 0.00
20260905000957 59 301 6.0 10.0 0.00 0.00 0.00 75 1014.4
20260905000927 0 0.0 0.0 0.00 0.00 0.00
20260905000457 59 285 2.0 4.0 0.00 0.00 0.00 76 1014.4
20260905000427 0 0.0 0.0 0.00 0.00 0.00
20260904235957 59 307 3.0 5.0 0.00 0.00 0.00 76 1014.4
20260904235928 0 0.0 0.0 0.00 0.00 0.00
20260904235457 59 301 2.0 4.0 0.00 0.00 0.00 76 1014.3
20260904235427 0 0.0 0.0 0.00 0.00 0.00
20260904234957 60 308 3.0 4.0 0.00 0.00 0.00 74 1014.3
20260904234930 0 0.0 0.0 0.00 0.00 0.00
20260904234458 59 298 4.0 7.0 0.00 0.00 0.00 74 1014.3
20260904233957 59 300 2.0 4.0 0.00 0.00 0.00 75 1014.2
20260904233928 0 0.0 0.0 0.00 0.00 0.00
20260904233457 59 307 4.0 6.0 0.00 0.00 0.00 76 1014.2
20260904233427 0 0.0 0.0 0.00 0.00 0.00
20260904232957 59 314 3.0 4.0 0.00 0.00 0.00 76 1014.2
20260904232928 0 0.0 0.0 0.00 0.00 0.00
20260904232457 59 306 2.0 5.0 0.00 0.00 0.00 76 1014.2
20260904232425 0 0.0 0.0 0.00 0.00 0.00
20260904231957 59 303 3.0 6.0 0.00 0.00 0.00 76 1014.2
20260904231926 0 0.0 0.0 0.00 0.00 0.00
20260904231459 59 307 3.0 6.0 0.00 0.00 0.00 76 1014.2
20260904231422 0 0.0 0.0 0.00 0.00 0.00
20260904230957 59 302 3.0 7.0 0.00 0.00 0.00 76 1014.3
20260904230923 0 0.0 0.0 0.00 0.00 0.00
20260904230457 59 288 2.0 4.0 0.00 0.00 0.00 77 1014.2
20260904230422 0 0.0 0.0 0.00 0.00 0.00
20260904225958 59 318 3.0 5.0 0.00 0.00 0.00 77 1014.3
20260904225923 0 0.0 0.0 0.00 0.00 0.00
20260904225457 59 304 3.0 7.0 0.00 0.00 0.00 78 1014.2
20260904224957 59 306 4.0 6.0 0.00 0.00 0.00 78 1014.2
20260904224923 0 0.0 0.0 0.00 0.00 0.00
20260904224457 59 307 3.0 6.0 0.00 0.00 0.00 77 1014.2
20260904224422 0 0.0 0.0 0.00 0.00 0.00
20260904223958 60 307 4.0 6.0 0.00 0.00 0.00 78 1014.2
20260904223923 0 0.0 0.0 0.00 0.00 0.00
20260904223458 60 300 2.0 4.0 0.00 0.00 0.00 77 1014.2
20260904223422 0 0.0 0.0 0.00 0.00 0.00
20260904222957 60 292 3.0 5.0 0.00 0.00 0.00 77 1014.2
20260904222923 0 0.0 0.0 0.00 0.00 0.00
20260904222457 60 307 2.0 5.0 0.00 0.00 0.00 76 1014.1
20260904222423 0 0.0 0.0 0.00 0.00 0.00
20260904221957 60 284 2.0 5.0 0.00 0.00 0.00 74 1014.2
20260904221921 0 0.0 0.0 0.00 0.00 0.00
20260904221458 60 302 3.0 5.0 0.00 0.00 0.00 74 1014.2
20260904221420 0 0.0 0.0 0.00 0.00 0.00
20260904220957 59 301 3.0 4.0 0.00 0.00 0.00 74 1014.3
20260904220457 59 295 3.0 7.0 0.00 0.00 0.00 75 1014.3
20260904215959 59 307 4.0 8.0 0.00 0.00 0.00 75 1014.4
20260904215920 0 0.0 0.0 0.00 0.00 0.00
20260904215457 60 301 5.0 8.0 0.00 0.00 0.00 78 1014.3
20260904215421 0 0.0 0.0 0.00 0.00 0.00
20260904214957 60 304 4.0 8.0 0.00 0.00 0.00 77 1014.3
20260904214457 61 291 4.0 7.0 0.00 0.00 0.00 75 1014.3
20260904214421 0 0.0 0.0 0.00 0.00 0.00
20260904213957 61 285 4.0 6.0 0.00 0.00 0.00 73 1014.2
20260904213921 0 0.0 0.0 0.00 0.00 0.00
20260904213457 61 293 4.0 7.0 0.00 0.00 0.00 74 1014.2
20260904213421 0 0.0 0.0 0.00 0.00 0.00
20260904212958 61 312 4.0 7.0 0.00 0.00 0.00 73 1014.1
20260904212922 0 0.0 0.0 0.00 0.00 0.00
20260904212457 61 305 3.0 6.0 0.00 0.00 0.00 72 1014.1
20260904212421 0 0.0 0.0 0.00 0.00 0.00
20260904211957 61 292 4.0 8.0 0.00 0.00 0.00 72 1014.0
20260904211921 0 0.0 0.0 0.00 0.00 0.00
20260904211458 61 292 4.0 9.0 0.00 0.00 0.00 72 1013.9
20260904211419 0 0.0 0.0 0.00 0.00 0.00
20260904210958 61 314 4.0 7.0 0.00 0.00 0.00 71 1013.9
20260904210918 0 0.0 0.0 0.00 0.00 0.00
20260904210457 60 266 3.0 5.0 0.00 0.00 0.00 74 1013.9
20260904210419 0 0.0 0.0 0.00 0.00 0.00
20260904205957 59 289 4.0 7.0 0.00 0.00 0.00 76 1014.2
20260904205918 0 0.0 0.0 0.00 0.00 0.00
20260904205457 60 310 4.0 6.0 0.00 0.00 0.00 76 1014.3
20260904204957 60 278 2.0 6.0 0.00 0.00 0.00 75 1014.2
20260904204919 0 0.0 0.0 0.00 0.00 0.00
20260904204457 61 293 4.0 8.0 0.00 0.00 0.00 73 1014.0
20260904204419 0 0.0 0.0 0.00 0.00 0.00
20260904203959 60 305 5.0 10.0 0.00 0.00 0.00 74 1013.7
20260904203919 0 0.0 0.0 0.00 0.00 0.00
20260904203457 60 304 5.0 9.0 0.00 0.00 0.00 76 1013.9
20260904203419 0 0.0 0.0 0.00 0.00 0.00
20260904202957 60 301 2.0 3.0 0.00 0.00 0.00 73 1013.7
20260904202457 59 280 3.0 6.0 0.00 0.00 0.00 76 1013.8
20260904202419 0 0.0 0.0 0.00 0.00 0.00
20260904201957 59 284 2.0 4.0 0.00 0.00 0.00 76 1014.0
20260904201917 0 0.0 0.0 0.00 0.00 0.00
20260904201457 59 306 6.0 8.0 0.00 0.00 0.00 77 1014.0
20260904200958 59 300 4.0 6.0 0.00 0.00 0.00 76 1014.0
20260904200916 0 0.0 0.0 0.00 0.00 0.00
20260904200457 60 295 3.0 4.0 0.00 0.00 0.00 75 1013.9
20260904195957 60 284 5.0 9.0 0.00 0.00 0.00 74 1013.9
20260904195458 60 284 2.0 5.0 0.00 0.00 0.00 74 1013.8
20260904194959 60 298 2.0 4.0 0.00 0.00 0.00 74 1013.9
20260904194917 0 0.0 0.0 0.00 0.00 0.00
20260904194457 61 290 5.0 8.0 0.00 0.00 0.00 72 1013.9
20260904193957 62 264 4.0 6.0 0.00 0.00 0.00 70 1013.6
20260904193457 62 287 3.0 6.0 0.00 0.00 0.00 70 1013.5
20260904192958 62 314 4.0 5.0 0.00 0.00 0.00 70 1013.6
20260904192917 0 0.0 0.0 0.00 0.00 0.00
20260904192457 61 234 1.0 4.0 0.00 0.00 0.00 72 1013.5
20260904192417 0 0.0 0.0 0.00 0.00 0.00
20260904191957 61 302 4.0 6.0 0.00 0.00 0.00 72 1013.5
20260904191917 0 0.0 0.0 0.00 0.00 0.00
20260904191457 60 292 4.0 8.0 0.00 0.00 0.00 74 1013.6
20260904191415 0 0.0 0.0 0.00 0.00 0.00
20260904190958 60 284 3.0 5.0 0.00 0.00 0.00 74 1013.5
20260904190914 0 0.0 0.0 0.00 0.00 0.00
20260904190457 59 269 4.0 7.0 0.00 0.00 0.00 75 1013.6
20260904190415 0 0.0 0.0 0.00 0.00 0.00
20260904185957 58 169 1.0 2.0 0.00 0.00 0.00 77 1013.5
20260904185914 0 0.0 0.0 0.00 0.00 0.00
20260904185457 58 298 3.0 4.0 0.00 0.00 0.00 78 1013.6
20260904185415 0 0.0 0.0 0.00 0.00 0.00
20260904184958 57 305 2.0 5.0 0.00 0.00 0.00 82 1013.7
20260904184914 0 0.0 0.0 0.00 0.00 0.00
20260904184457 57 311 2.0 3.0 0.00 0.00 0.00 83 1013.7
20260904184415 0 0.0 0.0 0.00 0.00 0.00
20260904183957 57 265 4.0 6.0 0.00 0.00 0.00 83 1013.8
20260904183915 0 0.0 0.0 0.00 0.00 0.00
20260904183457 57 305 2.0 4.0 0.00 0.00 0.00 83 1013.7
20260904182957 57 261 2.0 3.0 0.00 0.00 0.00 84 1013.7
20260904182914 0 0.0 0.0 0.00 0.00 0.00
20260904182458 56 289 1.0 2.0 0.00 0.00 0.00 85 1013.8
20260904182413 0 0.0 0.0 0.00 0.00 0.00
20260904181957 57 249 2.0 4.0 0.00 0.00 0.00 84 1013.7
20260904181913 0 0.0 0.0 0.00 0.00 0.00
20260904181459 57 306 2.0 4.0 0.00 0.00 0.00 83 1013.7
20260904181413 0 0.0 0.0 0.00 0.00 0.00
20260904180957 58 301 2.0 5.0 0.00 0.00 0.00 82 1013.6
20260904180912 0 0.0 0.0 0.00 0.00 0.00
20260904180457 57 254 3.0 4.0 0.00 0.00 0.00 82 1013.5
20260904180413 0 0.0 0.0 0.00 0.00 0.00
20260904175957 58 260 2.0 5.0 0.00 0.00 0.00 82 1013.5
20260904175913 0 0.0 0.0 0.00 0.00 0.00
20260904175457 58 292 2.0 4.0 0.00 0.00 0.00 81 1013.4
20260904175413 0 0.0 0.0 0.00 0.00 0.00
20260904174958 58 280 3.0 5.0 0.00 0.00 0.00 81 1013.5
20260904174913 0 0.0 0.0 0.00 0.00 0.00
20260904174457 58 265 4.0 6.0 0.00 0.00 0.00 81 1013.5
20260904174413 0 0.0 0.0 0.00 0.00 0.00
20260904173958 58 325 2.0 4.0 0.00 0.00 0.00 81 1013.4
20260904173913 0 0.0 0.0 0.00 0.00 0.00
20260904173457 57 297 1.0 2.0 0.00 0.00 0.00 81 1013.5
20260904173413 0 0.0 0.0 0.00 0.00 0.00
20260904172958 57 276 3.0 6.0 0.00 0.00 0.00 81 1013.5
20260904172914 0 0.0 0.0 0.00 0.00 0.00
20260904172458 57 231 1.0 2.0 0.00 0.00 0.00 81 1013.4
20260904171959 56 287 2.0 5.0 0.00 0.00 0.00 82 1013.4
20260904171910 0 0.0 0.0 0.00 0.00 0.00
20260904171458 56 225 2.0 4.0 0.00 0.00 0.00 82 1013.4
20260904171411 0 0.0 0.0 0.00 0.00 0.00
20260904170957 55 159 3.0 5.0 0.00 0.00 0.00 84 1013.4
20260904170910 0 0.0 0.0 0.00 0.00 0.00
20260904170457 55 171 3.0 4.0 0.00 0.00 0.00 84 1013.4
20260904165959 55 179 3.0 5.0 0.00 0.00 0.00 84 1013.3
20260904165457 55 177 2.0 3.0 0.00 0.00 0.00 85 1013.3
20260904164957 55 183 2.0 2.0 0.00 0.00 0.00 86 1013.3
20260904164457 55 191 1.0 3.0 0.00 0.00 0.00 86 1013.3
20260904164409 0 0.0 0.0 0.00 0.00 0.00
20260904163957 55 189 2.0 4.0 0.00 0.00 0.00 85 1013.3
20260904163909 0 0.0 0.0 0.00 0.00 0.00
20260904163457 55 179 3.0 3.0 0.00 0.00 0.00 85 1013.3
20260904163409 0 0.0 0.0 0.00 0.00 0.00
20260904162959 56 166 2.0 3.0 0.00 0.00 0.00 84 1013.3
20260904162910 0 0.0 0.0 0.00 0.00 0.00
20260904162458 56 227 1.0 3.0 0.00 0.00 0.00 85 1013.2
20260904162002 55 107 0.0 2.0 0.00 0.00 0.00 85 1013.2
20260904161909 0 0.0 0.0 0.00 0.00 0.00
20260904161457 55 185 2.0 2.0 0.00 0.00 0.00 84 1013.1
20260904161410 0 0.0 0.0 0.00 0.00 0.00
20260904160959 55 134 0.0 1.0 0.00 0.00 0.00 86 1013.2
20260904160910 0 0.0 0.0 0.00 0.00 0.00
20260904160457 55 195 1.0 3.0 0.00 0.00 0.00 86 1013.2
20260904155957 55 360 0.0 0.0 0.00 0.00 0.00 87 1013.2
20260904155459 55 360 0.0 0.0 0.00 0.00 0.00 88 1013.1
20260904155356 0 0.0 0.0 0.00 0.00 0.00
20260904154958 55 292 2.0 3.0 0.00 0.00 0.00 88 1013.1
20260904154857 0 0.0 0.0 0.00 0.00 0.00
20260904154457 55 331 0.0 1.0 0.00 0.00 0.00 88 1013.1
20260904154357 0 0.0 0.0 0.00 0.00 0.00
20260904153958 55 13 1.0 2.0 0.00 0.00 0.00 88 1013.1
20260904153857 0 0.0 0.0 0.00 0.00 0.00
20260904153458 55 283 2.0 4.0 0.00 0.00 0.00 88 1013.0
20260904152957 55 308 1.0 2.0 0.00 0.00 0.00 88 1013.0